Date String (YYYY-MM-DD hh:mm:ss) UTC,Instrument flags,Ambient pressure (hPa),Sample flow (lpm),Bypass flow (lpm),Sample temperature (°C),Ambient temperature (°C),ASC tube jacket temperature (°C),LED temperature (°C),Box temperature (°C),Sample RH (%),Span deviation,Mass concentration (μg/m³),Mass concentration (μg/m³),Mass concentration (μg/m³)
DateTimeUTC,F1_M11,P_M11,Q1_M11,Q2_M11,T1_M11,T2_M11,T3_M11,T4_M11,T5_M11,U1_M11,ZSPAN_M11,X2_M11,X0_M11,X1_M11
2022-11-10 11:00:00,,0821.8,5.01,0.00,22.1,20.7,00.0,30.9,23.9,09.8,0000.0,0000.29,0001.16,0000.18
2022-11-10 11:01:00,,0821.8,5.01,0.00,22.0,20.7,00.0,30.9,23.9,10.0,0000.0,0000.31,0001.21,0000.19
2022-11-10 11:02:00,,0821.8,5.00,0.00,22.0,20.6,00.0,30.9,23.9,10.0,0000.0,0000.30,0001.54,0000.18
2022-11-10 11:03:00,,0821.8,5.00,0.00,22.0,20.6,00.0,30.9,23.9,10.0,0000.0,0000.29,0001.80,0000.18
2022-11-10 11:04:00,,0822.0,5.01,0.00,22.0,20.6,00.0,30.9,23.8,10.0,0000.0,0000.28,0001.79,0000.17
2022-11-10 11:05:00,,0822.3,4.99,0.00,22.0,20.6,00.0,30.9,23.8,09.9,0000.0,0000.31,0001.86,0000.17
2022-11-10 11:06:00,,0821.9,5.00,0.00,22.0,20.5,00.0,30.9,23.8,09.9,0000.0,0000.32,0001.90,0000.18
2022-11-10 11:07:00,,0822.0,5.01,0.00,22.0,20.6,00.0,30.8,23.8,10.1,0000.0,0000.34,0001.91,0000.17
2022-11-10 11:08:00,,0822.0,5.00,0.00,22.0,20.6,00.0,30.9,23.8,10.4,0000.0,0000.33,0001.89,0000.18
2022-11-10 11:09:00,,0821.9,5.02,0.00,22.0,21.2,00.0,30.8,24.0,10.9,0000.0,0000.34,0001.93,0000.17
2022-11-10 11:10:00,,0822.0,4.98,0.00,22.1,22.2,00.0,30.8,24.2,11.5,0000.0,0000.33,0001.78,0000.16
2022-11-10 11:11:00,,0822.0,5.01,0.00,22.2,22.3,00.0,30.9,24.3,11.6,0000.0,0000.36,0001.74,0000.16
2022-11-10 11:12:00,,0822.0,5.00,0.00,22.3,21.9,00.0,30.9,24.2,11.7,0000.0,0000.37,0002.02,0000.16
2022-11-10 11:13:00,,0822.1,5.00,0.00,22.3,21.6,00.0,30.9,24.2,11.7,0000.0,0000.38,0002.72,0000.16
2022-11-10 11:14:00,,0822.1,5.00,0.00,22.2,21.4,00.0,31.0,24.1,11.7,0000.0,0000.38,0001.89,0000.16
2022-11-10 11:15:00,,0822.1,5.00,0.00,22.2,21.2,00.0,31.0,24.1,11.7,0000.0,0000.39,0001.96,0000.16
2022-11-10 11:16:00,,0822.2,5.01,0.00,22.2,21.0,00.0,31.0,24.0,11.8,0000.0,0000.39,0001.94,0000.16
2022-11-10 11:17:00,,0822.2,5.00,0.00,22.2,20.9,00.0,31.0,24.0,11.9,0000.0,0000.37,0001.90,0000.15
2022-11-10 11:18:00,,0822.2,5.00,0.00,22.2,20.8,00.0,31.0,24.0,11.9,0000.0,0000.35,0001.87,0000.15
2022-11-10 11:19:00,,0822.2,5.00,0.00,22.2,20.8,00.0,31.0,24.0,11.9,0000.0,0000.33,0001.83,0000.15
2022-11-10 11:20:00,,0822.2,5.00,0.00,22.2,20.7,00.0,31.0,23.9,11.7,0000.0,0000.34,0001.82,0000.15
2022-11-10 11:21:00,,0822.2,5.00,0.00,22.1,20.7,00.0,31.0,23.9,11.4,0000.0,0000.36,0001.88,0000.16
2022-11-10 11:22:00,,0822.2,5.00,0.00,22.1,20.7,00.0,31.0,23.9,11.8,0000.0,0000.34,0001.85,0000.17
2022-11-10 11:23:00,,0822.2,5.00,0.00,22.1,20.7,00.0,31.0,23.9,11.9,0000.0,0000.33,0001.75,0000.17
2022-11-10 11:24:00,,0822.2,4.99,0.00,22.1,20.6,00.0,31.0,23.9,11.9,0000.0,0000.32,0000.81,0000.18
2022-11-10 11:25:00,,0822.2,4.99,0.00,22.1,20.5,00.0,30.9,23.9,11.8,0000.0,0000.32,0000.74,0000.18
2022-11-10 11:26:00,,0822.1,5.00,0.00,22.0,20.5,00.0,30.9,23.8,11.9,0000.0,0000.32,0000.79,0000.17
2022-11-10 11:27:00,,0822.1,5.00,0.00,22.0,20.3,00.0,30.9,23.7,11.9,0000.0,0000.30,0000.77,0000.17
2022-11-10 11:28:00,,0822.2,5.00,0.00,21.9,20.1,00.0,30.9,23.6,12.0,0000.0,0000.29,0000.74,0000.16
2022-11-10 11:29:00,,0822.2,5.00,0.00,21.9,20.0,00.0,30.9,23.6,12.0,0000.0,0000.31,0000.78,0000.16
2022-11-10 11:30:00,,0822.2,5.02,0.00,21.9,20.9,00.0,30.8,23.8,12.0,0000.0,0000.33,0000.84,0000.17
2022-11-10 11:31:00,,0822.2,4.99,0.00,22.0,21.9,00.0,30.8,24.0,11.9,0000.0,0000.33,0000.86,0000.17
2022-11-10 11:32:00,,0822.2,4.99,0.00,22.1,21.8,00.0,30.9,24.1,11.8,0000.0,0000.31,0000.81,0000.16
2022-11-10 11:33:00,,0822.2,5.01,0.00,22.1,21.3,00.0,30.9,24.0,11.8,0000.0,0000.31,0000.83,0000.16
2022-11-10 11:34:00,,0822.2,5.00,0.00,22.1,20.9,00.0,30.9,23.9,12.0,0000.0,0000.30,0000.73,0000.15
2022-11-10 11:35:00,,0822.2,5.00,0.00,22.0,20.6,00.0,30.9,23.8,12.3,0000.0,0000.31,0000.72,0000.15
2022-11-10 11:36:00,,0822.2,5.00,0.00,22.0,20.4,00.0,30.9,23.8,12.7,0000.0,0000.33,0000.84,0000.15
2022-11-10 11:37:00,,0822.2,5.00,0.00,22.0,20.3,00.0,30.8,23.7,12.9,0000.0,0000.31,0000.72,0000.16
2022-11-10 11:38:00,,0822.2,4.99,0.00,21.9,20.2,00.0,30.8,23.7,13.2,0000.0,0000.34,0000.75,0000.16
2022-11-10 11:39:00,,0822.3,5.00,0.00,21.9,20.1,00.0,30.8,23.6,13.4,0000.0,0000.37,0000.81,0000.16
2022-11-10 11:40:00,,0822.3,4.99,0.00,21.8,20.0,00.0,30.8,23.6,13.6,0000.0,0000.39,0000.88,0000.17
2022-11-10 11:41:00,,0822.3,5.00,0.00,21.8,19.9,00.0,30.8,23.5,13.7,0000.0,0000.40,0002.04,0000.17
2022-11-10 11:42:00,,0822.3,4.99,0.00,21.8,19.8,00.0,30.7,23.5,13.7,0000.0,0000.41,0003.51,0000.16
2022-11-10 11:43:00,,0822.3,5.00,0.00,21.7,19.7,00.0,30.7,23.4,13.9,0000.0,0000.45,0004.43,0000.16
2022-11-10 11:44:00,,0822.2,5.01,0.00,21.7,19.6,00.0,30.7,23.4,14.1,0000.0,0000.47,0004.94,0000.16
2022-11-10 11:45:00,,0822.2,5.01,0.00,21.7,19.6,00.0,30.7,23.4,14.2,0000.0,0000.50,0005.09,0000.16
2022-11-10 11:46:00,,0822.3,5.00,0.00,21.7,19.8,00.0,30.6,23.4,14.3,0000.0,0000.49,0005.07,0000.16
2022-11-10 11:47:00,,0822.2,5.00,0.00,21.7,20.8,00.0,30.6,23.6,14.3,0000.0,0000.48,0004.96,0000.17
2022-11-10 11:48:00,,0822.2,4.99,0.00,21.8,22.0,00.0,30.6,23.9,13.9,0000.0,0000.49,0005.02,0000.17
2022-11-10 11:49:00,,0822.2,4.99,0.00,21.9,21.9,00.0,30.6,24.0,13.8,0000.0,0000.49,0005.38,0000.17
2022-11-10 11:50:00,,0822.2,5.00,0.00,21.9,21.5,00.0,30.7,23.9,13.9,0000.0,0000.47,0005.34,0000.17
2022-11-10 11:51:00,,0822.3,5.00,0.00,21.9,21.3,00.0,30.7,23.9,13.4,0000.0,0000.47,0005.36,0000.17
2022-11-10 11:52:00,,0822.2,5.00,0.00,22.0,21.1,00.0,30.7,23.9,13.2,0000.0,0000.45,0004.44,0000.17
2022-11-10 11:53:00,,0822.2,5.00,0.00,22.0,21.0,00.0,30.7,23.9,13.4,0000.0,0000.42,0002.96,0000.17
2022-11-10 11:54:00,,0822.2,5.00,0.00,22.0,21.0,00.0,30.7,23.9,13.4,0000.0,0000.39,0001.93,0000.17
2022-11-10 11:55:00,,0822.2,5.00,0.00,22.0,20.9,00.0,30.7,23.9,13.3,0000.0,0000.38,0001.26,0000.18
2022-11-10 11:56:00,,0822.2,5.00,0.00,22.0,20.9,00.0,30.8,23.9,12.8,0000.0,0000.38,0001.40,0000.18
2022-11-10 11:57:00,,0822.2,5.00,0.00,22.0,20.9,00.0,30.8,23.9,12.7,0000.0,0000.37,0001.38,0000.18
2022-11-10 11:58:00,,0822.3,4.99,0.00,22.0,20.8,00.0,30.8,23.9,12.6,0000.0,0000.39,0001.40,0000.19
2022-11-10 11:59:00,,0822.3,5.00,0.00,22.0,20.7,00.0,30.8,23.9,12.6,0000.0,0000.39,0001.41,0000.19
